Location: Writing-on-Stone Provincial Park
(49.0825°N, 111.6163°W)
Time: 07:25:23
(UTC-07:00)

Amateur Radio Satellites - All Passes

Search period start: 26 January 2015 06:55
Search period end: 27 January 2015 06:55
Location: Writing-on-Stone Provincial Park, 49.0825°N, 111.6163°W

Satellite Date Start Highest point End Downlink Frequencies (MHz)
Time Altitude Azimuth
DANDE 26 Jan 06:57:19 07:04:44 33° 301° (WNW) 07:12:15 436.750
BEESAT 3 26 Jan 07:02:24 07:03:37 11° 346° (NNW) 07:04:47 437.485
PRISM 26 Jan 07:02:32 07:05:27 18° 269° (W) 07:08:14 437.425
CUBESAT XI-V 26 Jan 07:07:40 07:11:38 28° 267° (W) 07:15:35 437.345
Cubesat XI-IV 26 Jan 07:16:22 07:21:45 78° 288° (WNW) 07:27:08 437.490
AO-7 26 Jan 07:17:47 07:24:19 26° 314° (NW) 07:30:39 29.400- 29.500
STRAND 1 26 Jan 07:28:30 07:32:49 27° 267° (W) 07:37:05 437.568
YUBILEINY 26 Jan 07:28:55 07:37:45 89° 81° (E) 07:46:35 435.215
CUTE-I 26 Jan 07:37:31 07:42:46 54° 291° (WNW) 07:47:59 437.470
BRITE-PL 26 Jan 07:39:57 07:42:43 14° 82° (E) 07:45:44 437.365/2234.400
CUSAT 1 26 Jan 07:48:36 07:53:50 17° 313° (NW) 07:58:40 437.405
GOMX 1 26 Jan 07:53:27 07:55:32 12° 81° (E) 07:57:53 467.674
CANX-2 26 Jan 08:00:11 08:00:52 10° 84° (E) 08:01:48 2200.000
AIST 2 26 Jan 08:01:04 08:02:10 11° 350° (N) 08:03:14 435.215
PCSat 26 Jan 08:07:18 08:11:23 21° 331° (NNW) 08:15:24 145.827
ANTELSAT 26 Jan 08:19:55 08:21:00 11° 55° (NE) 08:22:19 437.575/2403.000
DOVE 4 26 Jan 08:21:05 08:24:04 16° 84° (E) 08:27:12 437.250
CUTE 1.7 + AOD 2 26 Jan 08:23:10 08:25:55 17° 89° (E) 08:28:45 437.475
AAUSAT CUBESAT 2 26 Jan 08:24:52 08:25:51 11° 85° (E) 08:27:03 437.432
RS-15 26 Jan 08:27:48 08:38:21 49° 330° (NNW) 08:49:07 29.354- 29.394
TIGRISAT 26 Jan 08:28:44 08:30:42 13° 56° (ENE) 08:32:51 435.000
CINEMA 3 26 Jan 08:34:42 08:35:48 11° 81° (E) 08:37:11 145.822/145.860
BEESAT 3 26 Jan 08:43:24 08:43:36 10° 10° (N) 08:43:51 437.485
DUCHIFAT 1 26 Jan 08:46:50 08:47:08 10° 55° (NE) 08:47:38 145.980
DANDE 26 Jan 08:50:38 08:51:24 10° 326° (NW) 08:51:43 436.750
SEEDS 26 Jan 08:57:53 09:01:40 31° 95° (E) 09:05:26 437.485
Cubesat XI-IV 26 Jan 08:58:01 09:01:06 15° 306° (NW) 09:04:00 437.490
HO-68 26 Jan 09:01:05 09:07:56 47° 99° (E) 09:14:49 435.675
BRITE-PL 26 Jan 09:16:29 09:22:14 79° 102° (ESE) 09:27:52 437.365/2234.400
UNISAT 6 26 Jan 09:17:15 09:21:24 32° 66° (ENE) 09:25:35 437.425
NANOSAT C BR1 26 Jan 09:17:34 09:20:36 19° 62° (ENE) 09:23:43 145.865
UWE-3 26 Jan 09:19:01 09:21:19 14° 85° (E) 09:23:47 435.000/436.395/437.385
CUTE-I 26 Jan 09:20:20 09:21:50 11° 310° (NW) 09:23:05 437.470
YUBILEINY 26 Jan 09:27:03 09:33:33 23° 282° (WNW) 09:39:45 435.215
COMPASS 1 26 Jan 09:29:08 09:33:15 55° 99° (E) 09:37:20 437.405
GOMX 1 26 Jan 09:29:11 09:34:44 75° 102° (ESE) 09:40:05 467.674
QB50P2 26 Jan 09:29:22 09:32:51 25° 64° (ENE) 09:36:25 145.880/145.840
CANX-2 26 Jan 09:33:18 09:37:35 89° 290° (WNW) 09:41:49 2200.000
QB50P1 26 Jan 09:39:38 09:43:21 30° 66° (ENE) 09:47:09 145.935-145.965
AIST 2 26 Jan 09:41:07 09:42:40 12° 14° (NNE) 09:44:15 435.215
Oscar 11 26 Jan 09:47:33 09:51:37 39° 97° (E) 09:55:40 145.826/435.025
POLYITAN 1 26 Jan 09:51:46 09:55:47 39° 69° (ENE) 09:59:51 437.675
ANTELSAT 26 Jan 09:52:19 09:57:00 64° 72° (ENE) 10:01:42 437.575/2403.000
PCSat 26 Jan 09:55:07 09:56:59 12° 356° (N) 09:58:49 145.827
DOVE 4 26 Jan 09:57:17 10:02:39 85° 288° (WNW) 10:07:47 437.250
AAUSAT CUBESAT 2 26 Jan 09:58:01 10:02:14 84° 282° (WNW) 10:06:22 437.432
CUTE 1.7 + AOD 2 26 Jan 09:58:05 10:02:16 55° 288° (WNW) 10:06:23 437.475
TIGRISAT 26 Jan 10:02:02 10:06:46 77° 74° (ENE) 10:11:30 435.000
BEESAT 2 26 Jan 10:02:28 10:05:21 18° 28° (NNE) 10:08:17 435.950
CUBEBUG 2 26 Jan 10:06:52 10:11:22 45° 97° (E) 10:15:43 437.445
BUGSAT 1 26 Jan 10:08:41 10:12:34 43° 70° (ENE) 10:16:34 437.445
CINEMA 3 26 Jan 10:09:02 10:14:03 77° 103° (ESE) 10:18:49 145.822/145.860
DELFI C3 26 Jan 10:12:11 10:16:12 57° 100° (E) 10:20:12 145.870
POPSAT HIP 1 26 Jan 10:13:22 10:17:36 63° 73° (ENE) 10:21:53 437.405
DUCHIFAT 1 26 Jan 10:18:00 10:22:15 69° 73° (ENE) 10:26:34 145.980
BEESAT 3 26 Jan 10:19:53 10:23:14 23° 33° (NNE) 10:26:36 437.485
UKube-1 26 Jan 10:20:58 10:25:12 48° 100° (E) 10:29:27 .
ZACube-1 26 Jan 10:29:03 10:33:29 53° 99° (E) 10:37:48 437.345
SEEDS 26 Jan 10:33:47 10:37:29 29° 293° (WNW) 10:41:05 437.485
DX 1 26 Jan 10:37:42 10:42:08 74° 102° (ESE) 10:46:33 434.975-435.025
ESTCUBE 1 26 Jan 10:39:46 10:42:33 16° 88° (E) 10:45:27 437.505/2401.250
FUNcube-1 26 Jan 10:42:08 10:46:39 71° 102° (ESE) 10:51:01 145.935
RS-15 26 Jan 10:43:57 10:53:52 36° 3° (N) 11:04:08 29.354- 29.394
AISAT 26 Jan 10:46:34 10:50:48 38° 97° (E) 10:55:01 437.250
HO-68 26 Jan 10:48:59 10:55:41 43° 299° (WNW) 11:02:18 435.675
NANOSAT C BR1 26 Jan 10:51:57 10:56:09 54° 260° (W) 11:00:23 145.865
UNISAT 6 26 Jan 10:53:46 10:58:09 36° 264° (W) 11:02:30 437.425
UWE-3 26 Jan 10:53:56 10:58:33 76° 287° (WNW) 11:03:00 435.000/436.395/437.385
BRITE-PL 26 Jan 10:55:55 11:00:10 22° 301° (WNW) 11:04:15 437.365/2234.400
HUMSAT D 26 Jan 10:57:49 11:02:04 59° 100° (E) 11:06:15 437.325/437.525
50 SAT 26 Jan 11:04:17 11:08:18 52° 99° (E) 11:12:15 437.505
QB50P2 26 Jan 11:04:34 11:08:38 40° 263° (W) 11:12:43 145.880/145.840
COMPASS 1 26 Jan 11:05:44 11:08:38 18° 298° (WNW) 11:11:27 437.405
GOMX 1 26 Jan 11:08:12 11:12:18 21° 301° (WNW) 11:16:14 467.674
CANX-2 26 Jan 11:11:06 11:12:56 12° 302° (WNW) 11:14:37 2200.000
QB50P1 26 Jan 11:15:21 11:19:13 32° 265° (W) 11:23:06 145.935-145.965
VERMONT LUNAR 26 Jan 11:16:24 11:18:35 16° 166° (SSE) 11:20:48 437.305
VELOX 1 26 Jan 11:16:28 11:20:59 72° 103° (ESE) 11:25:28 145.980
AIST 2 26 Jan 11:18:50 11:22:39 29° 37° (NE) 11:26:26 435.215
Oscar 11 26 Jan 11:24:04 11:27:40 26° 295° (WNW) 11:31:11 145.826/435.025
POLYITAN 1 26 Jan 11:28:18 11:31:53 24° 267° (W) 11:35:26 437.675
ANTELSAT 26 Jan 11:31:00 11:34:17 18° 272° (W) 11:37:26 437.575/2403.000
GONETS M04 26 Jan 11:34:35 11:41:59 31° 60° (ENE) 11:49:31
SPROUT 26 Jan 11:34:39 11:36:55 14° 87° (E) 11:39:21 437.525
CUBEBUG 1 26 Jan 11:34:53 11:39:13 49° 99° (E) 11:43:33 437.445
AAUSAT CUBESAT 2 26 Jan 11:35:50 11:37:16 11° 302° (WNW) 11:38:33 437.432
DOVE 4 26 Jan 11:36:24 11:39:41 16° 304° (WNW) 11:42:44 437.250
SO-50 26 Jan 11:38:43 11:43:08 49° 122° (ESE) 11:47:45 436.795
PCSat 26 Jan 11:39:23 11:42:44 16° 22° (NNE) 11:46:10 145.827
BEESAT 2 26 Jan 11:40:05 11:44:18 74° 49° (NE) 11:48:27 435.950
TIGRISAT 26 Jan 11:41:22 11:44:09 15° 273° (W) 11:46:45 435.000
CUBEBUG 2 26 Jan 11:44:00 11:47:51 25° 297° (WNW) 11:51:32 437.445
BUGSAT 1 26 Jan 11:45:13 11:48:20 20° 269° (W) 11:51:26 437.445
CINEMA 3 26 Jan 11:47:20 11:50:41 18° 301° (WNW) 11:53:50 145.822/145.860
DELFI C3 26 Jan 11:48:25 11:51:06 17° 298° (WNW) 11:53:39 145.870
AIST 1 26 Jan 11:49:05 11:53:09 47° 94° (E) 11:57:16
POPSAT HIP 1 26 Jan 11:51:19 11:54:00 16° 272° (W) 11:56:33 437.405
PHONESAT 2.4 26 Jan 11:55:50 11:58:16 17° 166° (SSE) 12:00:44 2401.200-2431.200
DUCHIFAT 1 26 Jan 11:56:17 11:58:40 14° 273° (W) 12:00:54 145.980
Oscar 19 26 Jan 11:56:34 12:00:59 29° 63° (ENE) 12:05:29 437.125/150
BEESAT 3 26 Jan 11:57:38 12:01:49 71° 235° (SW) 12:05:55 437.485
UKube-1 26 Jan 11:57:43 12:01:08 22° 298° (WNW) 12:04:26 .
ZACube-1 26 Jan 12:06:07 12:09:32 21° 298° (WNW) 12:12:48 437.345
ITAMSAT 1 26 Jan 12:07:10 12:10:10 16° 55° (NE) 12:13:20 435.822/435.867
DX 1 26 Jan 12:15:10 12:17:55 16° 301° (WNW) 12:20:31 434.975-435.025
ESTCUBE 1 26 Jan 12:15:27 12:19:57 66° 287° (WNW) 12:24:25 437.505/2401.250
FUNcube-1 26 Jan 12:19:36 12:22:31 17° 300° (WNW) 12:25:15 145.935
TISAT 1 26 Jan 12:21:47 12:25:50 38° 97° (E) 12:29:52 437.305
AISAT 26 Jan 12:23:25 12:27:20 28° 295° (WNW) 12:31:09 437.250
UWE-3 26 Jan 12:32:31 12:34:21 12° 304° (NW) 12:35:58 435.000/436.395/437.385
HUMSAT D 26 Jan 12:34:33 12:37:30 18° 299° (WNW) 12:40:18 437.325/437.525
HO-68 26 Jan 12:39:01 12:41:44 12° 321° (NW) 12:44:11 435.675
50 SAT 26 Jan 12:40:14 12:43:06 18° 298° (WNW) 12:45:52 437.505
Gurwin Techsat 1B 26 Jan 12:44:13 12:48:10 22° 59° (ENE) 12:52:15 435.225
AO-7 26 Jan 12:47:15 12:52:01 17° 37° (NE) 12:57:02 29.400- 29.500
VERMONT LUNAR 26 Jan 12:53:22 12:56:02 20° 182° (S) 12:58:43 437.305
VELOX 1 26 Jan 12:54:11 12:57:06 17° 301° (WNW) 12:59:54 145.980
SWISSCUBE 26 Jan 12:54:14 12:57:15 17° 88° (E) 13:00:26 437.505
AIST 2 26 Jan 12:57:18 13:01:29 50° 237° (WSW) 13:05:36 435.215
RS-15 26 Jan 12:58:15 13:09:11 55° 35° (NE) 13:20:38 29.354- 29.394
SPROUT 26 Jan 13:09:14 13:13:36 71° 286° (WNW) 13:17:55 437.525
BEESAT 26 Jan 13:10:16 13:13:54 22° 91° (E) 13:17:39 436.000
CUBEBUG 1 26 Jan 13:11:52 13:15:20 22° 297° (WNW) 13:18:45 437.445
ITUPSAT 1 26 Jan 13:12:04 13:15:45 22° 91° (E) 13:19:33 437.325
CUSAT 1 26 Jan 13:15:53 13:16:49 10° 37° (NE) 13:18:04 437.405
BEESAT 2 26 Jan 13:19:28 13:22:03 16° 247° (WSW) 13:24:28 435.950
SO-50 26 Jan 13:19:38 13:23:55 34° 324° (NW) 13:28:17 436.795
PCSat 26 Jan 13:22:18 13:27:33 47° 46° (NE) 13:32:48 145.827
AIST 1 26 Jan 13:27:58 13:31:09 20° 294° (WNW) 13:34:15
GONETS M04 26 Jan 13:31:07 13:39:48 74° 265° (W) 13:48:25
PHONESAT 2.4 26 Jan 13:33:21 13:36:10 21° 183° (S) 13:38:59 2401.200-2431.200
Oscar 19 26 Jan 13:35:10 13:40:11 47° 261° (W) 13:45:13 437.125/150
HORYU 2 26 Jan 13:37:27 13:40:36 19° 61° (ENE) 13:43:52 437.375
ITAMSAT 1 26 Jan 13:43:49 13:49:00 86° 74° (ENE) 13:54:15 435.822/435.867
ESTCUBE 1 26 Jan 13:55:10 13:56:04 10° 305° (NW) 13:56:44 437.505/2401.250
TISAT 1 26 Jan 13:57:55 14:01:31 26° 295° (WNW) 14:05:04 437.305
DANDE 26 Jan 14:10:21 14:15:46 21° 50° (NE) 14:20:34 436.750
KKS-1 26 Jan 14:22:10 14:25:45 23° 92° (E) 14:29:23 437.445
Gurwin Techsat 1B 26 Jan 14:22:26 14:27:43 68° 257° (WSW) 14:33:04 435.225
STARS 26 Jan 14:23:25 14:26:12 17° 89° (E) 14:29:08 437.465
SWISSCUBE 26 Jan 14:30:55 14:35:42 68° 287° (WNW) 14:40:27 437.505
VERMONT LUNAR 26 Jan 14:31:43 14:33:27 13° 199° (SSW) 14:35:08 437.305
AO-7 26 Jan 14:35:07 14:43:05 52° 60° (ENE) 14:51:08 29.400- 29.500
BEESAT 26 Jan 14:47:27 14:52:07 53° 290° (WNW) 14:56:45 436.000
SPROUT 26 Jan 14:47:59 14:48:58 11° 304° (NW) 14:49:46 437.525
ITUPSAT 1 26 Jan 14:49:20 14:54:00 52° 290° (WNW) 14:58:38 437.325
JAS-2 26 Jan 14:50:25 14:54:13 20° 59° (ENE) 14:58:03 435.910
CUSAT 1 26 Jan 14:55:54 15:02:35 40° 64° (ENE) 15:07:50 437.405
SO-50 26 Jan 15:03:11 15:05:53 15° 347° (NNW) 15:08:33 436.795
PCSat 26 Jan 15:05:58 15:10:54 35° 246° (WSW) 15:15:46 145.827
RS-15 26 Jan 15:10:58 15:22:04 64° 241° (WSW) 15:33:35 29.354- 29.394
PHONESAT 2.4 26 Jan 15:12:15 15:14:01 13° 200° (SSW) 15:15:44 2401.200-2431.200
HORYU 2 26 Jan 15:12:26 15:16:55 60° 259° (WSW) 15:21:24 437.375
ITAMSAT 1 26 Jan 15:26:18 15:29:19 15° 274° (W) 15:32:06 435.822/435.867
GONETS M04 26 Jan 15:29:56 15:35:14 17° 286° (WNW) 15:40:06
M-CUBED/EXP-1 PRIME 26 Jan 15:38:27 15:41:24 29° 103° (ESE) 15:44:23 437.505
CUTE-I 26 Jan 15:47:58 15:49:48 12° 51° (NE) 15:51:51 437.470
DANDE 26 Jan 15:53:11 16:00:51 84° 78° (ENE) 16:06:36 436.750
KKS-1 26 Jan 15:58:19 16:02:38 45° 291° (WNW) 16:06:54 437.445
STARS 26 Jan 15:58:44 16:03:11 63° 288° (WNW) 16:07:34 437.465
Gurwin Techsat 1B 26 Jan 16:08:14 16:08:53 10° 279° (W) 16:09:11 435.225
SWISSCUBE 26 Jan 16:11:01 16:12:47 12° 306° (NW) 16:14:21 437.505
AUBIESAT-1 26 Jan 16:14:01 16:17:20 73° 108° (ESE) 16:20:40 437.475
AO-7 26 Jan 16:28:06 16:36:05 46° 262° (W) 16:44:02 29.400- 29.500
JAS-2 26 Jan 16:33:28 16:39:00 69° 257° (WSW) 16:44:13 435.910
CUSAT 1 26 Jan 16:39:12 16:45:41 41° 271° (W) 16:50:40 437.405
SO-50 26 Jan 16:45:47 16:48:22 14° 12° (NNE) 16:51:01 436.795
Cubesat XI-IV 26 Jan 17:03:08 17:08:06 42° 66° (ENE) 17:13:08 437.490
O/OREOS (USA 219) 26 Jan 17:09:45 17:14:06 53° 111° (ESE) 17:18:33 437.305
M-CUBED/EXP-1 PRIME 26 Jan 17:13:45 17:16:21 21° 300° (WNW) 17:18:52 437.505
MOZHAYETS 4 26 Jan 17:15:21 17:19:52 59° 100° (E) 17:24:22
CUTE-I 26 Jan 17:23:43 17:28:56 60° 70° (ENE) 17:34:13 437.470
RS-15 26 Jan 17:25:49 17:32:28 17° 262° (W) 17:38:27 29.354- 29.394
DANDE 26 Jan 17:38:01 17:43:08 20° 282° (WNW) 17:47:16 436.750
HO-68 26 Jan 17:50:40 17:54:15 15° 43° (NE) 17:58:05 435.675
AUBIESAT-1 26 Jan 17:51:02 17:51:52 11° 306° (NW) 17:52:34 437.475
STRAND 1 26 Jan 17:57:04 17:58:36 11° 83° (E) 18:00:26 437.568
SO-50 26 Jan 18:26:03 18:30:24 31° 35° (NE) 18:34:49 436.795
PRISM 26 Jan 18:39:45 18:43:46 46° 100° (E) 18:47:47 437.425
YUBILEINY 26 Jan 18:41:21 18:47:19 22° 77° (ENE) 18:53:39 435.215
Cubesat XI-IV 26 Jan 18:43:34 18:48:21 32° 266° (W) 18:53:07 437.490
O/OREOS (USA 219) 26 Jan 18:50:10 18:53:52 24° 312° (NW) 18:57:32 437.305
MOZHAYETS 4 26 Jan 18:53:24 18:56:45 20° 298° (WNW) 19:00:00
BRITE-PL 26 Jan 18:54:20 18:58:14 23° 59° (ENE) 19:02:26 437.365/2234.400
CANX-2 26 Jan 18:56:36 18:58:59 15° 60° (ENE) 19:01:30 2200.000
CUBESAT XI-V 26 Jan 18:59:21 19:03:58 55° 100° (E) 19:08:36 437.345
GOMX 1 26 Jan 19:04:48 19:08:31 21° 59° (ENE) 19:12:29 467.674
CUTE-I 26 Jan 19:05:18 19:09:29 23° 270° (W) 19:13:35 437.470
AAUSAT CUBESAT 2 26 Jan 19:19:40 19:21:58 15° 60° (ENE) 19:24:24 437.432
CUTE 1.7 + AOD 2 26 Jan 19:20:09 19:23:25 22° 64° (ENE) 19:26:47 437.475
DOVE 4 26 Jan 19:30:11 19:34:13 25° 61° (ENE) 19:38:29 437.250
STRAND 1 26 Jan 19:33:37 19:38:49 77° 104° (ESE) 19:43:59 437.568
HO-68 26 Jan 19:33:42 19:40:35 54° 64° (ENE) 19:47:31 435.675
CUBEBUG 2 26 Jan 19:36:26 19:37:31 11° 54° (NE) 19:38:50 437.445
CINEMA 3 26 Jan 19:39:18 19:42:36 19° 59° (ENE) 19:46:07 145.822/145.860
UKube-1 26 Jan 19:47:50 19:48:41 11° 55° (NE) 19:49:44 .
SEEDS 26 Jan 19:54:02 19:57:59 38° 69° (ENE) 20:01:58 437.485
ZACube-1 26 Jan 19:56:15 19:57:39 11° 56° (NE) 19:59:14 437.345
DX 1 26 Jan 20:03:24 20:05:52 15° 59° (ENE) 20:08:29 434.975-435.025
SO-50 26 Jan 20:06:27 20:11:19 61° 235° (SW) 20:16:11 436.795
FUNcube-1 26 Jan 20:08:06 20:10:27 14° 58° (ENE) 20:12:59 145.935
PRISM 26 Jan 20:15:55 20:19:03 21° 297° (WNW) 20:22:06 437.425
UWE-3 26 Jan 20:19:47 20:23:15 21° 62° (ENE) 20:26:49 435.000/436.395/437.385
HUMSAT D 26 Jan 20:21:55 20:22:50 11° 56° (NE) 20:23:57 437.325/437.525
COMPASS 1 26 Jan 20:24:26 20:28:38 65° 73° (ENE) 20:32:50 437.405
CANX-2 26 Jan 20:30:08 20:34:27 75° 258° (WSW) 20:38:46 2200.000
BRITE-PL 26 Jan 20:31:15 20:36:14 66° 259° (W) 20:41:41 437.365/2234.400
YUBILEINY 26 Jan 20:34:20 20:43:03 89° 98° (E) 20:51:51 435.215
CUBESAT XI-V 26 Jan 20:37:31 20:41:06 22° 298° (WNW) 20:44:37 437.345
GOMX 1 26 Jan 20:41:02 20:46:04 73° 258° (WSW) 20:51:29 467.674
VELOX 1 26 Jan 20:44:03 20:46:35 15° 58° (ENE) 20:49:16 145.980
Oscar 11 26 Jan 20:46:09 20:50:22 51° 71° (ENE) 20:54:37 145.826/435.025
AAUSAT CUBESAT 2 26 Jan 20:52:56 20:57:10 73° 259° (W) 21:01:23 437.432
CUTE 1.7 + AOD 2 26 Jan 20:54:58 20:59:08 46° 262° (W) 21:03:17 437.475
CUBEBUG 1 26 Jan 21:03:19 21:03:45 10° 55° (NE) 21:04:24 437.445
DELFI C3 26 Jan 21:04:15 21:08:17 63° 74° (ENE) 21:12:21 145.870
DOVE 4 26 Jan 21:06:40 21:11:38 58° 261° (W) 21:16:51 437.250
CUBEBUG 2 26 Jan 21:08:41 21:13:23 63° 72° (ENE) 21:18:09 437.445
STRAND 1 26 Jan 21:13:53 21:17:30 19° 302° (WNW) 21:21:00 437.568
CINEMA 3 26 Jan 21:14:20 21:19:16 77° 257° (WSW) 21:24:22 145.822/145.860
UKube-1 26 Jan 21:19:50 21:24:08 71° 73° (ENE) 21:28:29 .
HO-68 26 Jan 21:22:04 21:28:37 37° 265° (W) 21:35:07 435.675
ZACube-1 26 Jan 21:28:41 21:33:16 70° 74° (ENE) 21:37:53 437.345
SEEDS 26 Jan 21:30:25 21:33:58 24° 268° (W) 21:37:28 437.485
DX 1 26 Jan 21:37:15 21:41:37 76° 256° (WSW) 21:46:01 434.975-435.025
FUNcube-1 26 Jan 21:41:35 21:46:12 90° 248° (WSW) 21:50:51 145.935
ESTCUBE 1 26 Jan 21:43:21 21:46:59 25° 64° (ENE) 21:50:42 437.505/2401.250
AISAT 26 Jan 21:48:30 21:52:52 57° 71° (ENE) 21:57:18 437.250
TIGRISAT 26 Jan 21:52:10 21:53:48 12° 84° (E) 21:55:38 435.000
AIST 1 26 Jan 21:52:29 21:55:39 20° 66° (ENE) 21:58:54
HUMSAT D 26 Jan 21:53:35 21:57:55 72° 74° (ENE) 22:02:17 437.325/437.525
UWE-3 26 Jan 21:54:49 21:59:26 58° 260° (W) 22:04:07 435.000/436.395/437.385
50 SAT 26 Jan 21:55:30 21:59:34 57° 72° (ENE) 22:03:39 437.505
COMPASS 1 26 Jan 22:02:24 22:04:52 15° 272° (W) 22:07:10 437.405
VELOX 1 26 Jan 22:18:13 22:22:39 78° 257° (WSW) 22:27:09 145.980
Oscar 11 26 Jan 22:23:41 22:26:53 19° 270° (W) 22:30:00 145.826/435.025
GOMX 1 26 Jan 22:23:45 22:25:23 11° 280° (W) 22:26:45 467.674
SPROUT 26 Jan 22:32:50 22:35:53 20° 62° (ENE) 22:39:03 437.525
NANOSAT C BR1 26 Jan 22:33:54 22:36:56 19° 90° (E) 22:40:05 145.865
YUBILEINY 26 Jan 22:34:17 22:41:18 25° 304° (NW) 22:48:06 435.215
CUBEBUG 1 26 Jan 22:35:04 22:39:23 68° 73° (ENE) 22:43:45 437.445
ISS 26 Jan 22:40:49 22:42:12 12° 136° (SE) 22:43:41 145.825
DELFI C3 26 Jan 22:41:41 22:44:01 14° 272° (W) 22:46:12 145.870
UNISAT 6 26 Jan 22:41:47 22:45:58 36° 96° (E) 22:50:04 437.425
QB50P2 26 Jan 22:46:15 22:49:50 25° 93° (E) 22:53:26 145.880/145.840
CUBEBUG 2 26 Jan 22:47:09 22:50:33 19° 272° (W) 22:53:52 437.445
CINEMA 3 26 Jan 22:55:48 22:57:29 11° 278° (W) 22:58:53 145.822/145.860
QB50P1 26 Jan 22:56:24 23:00:15 31° 95° (E) 23:04:06 145.935-145.965
UKube-1 26 Jan 22:58:27 23:00:52 14° 272° (W) 23:03:07 .
ZACube-1 26 Jan 23:07:18 23:10:12 16° 273° (W) 23:12:58 437.345
POLYITAN 1 26 Jan 23:09:09 23:13:16 42° 98° (E) 23:17:23 437.675
ANTELSAT 26 Jan 23:17:22 23:21:56 80° 103° (ESE) 23:26:21 437.575/2403.000
TISAT 1 26 Jan 23:18:07 23:22:13 49° 70° (ENE) 23:26:22 437.305
ESTCUBE 1 26 Jan 23:19:24 23:23:42 43° 262° (W) 23:28:00 437.505/2401.250
FUNcube-1 26 Jan 23:21:24 23:23:20 12° 276° (W) 23:25:02 145.935
BUGSAT 1 26 Jan 23:22:18 23:26:24 44° 98° (E) 23:30:31 437.445
AISAT 26 Jan 23:26:45 23:29:55 18° 270° (W) 23:32:58 437.250
TIGRISAT 26 Jan 23:26:47 23:31:21 86° 285° (WNW) 23:35:45 435.000
AIST 1 26 Jan 23:29:26 23:33:39 48° 265° (W) 23:37:50
POPSAT HIP 1 26 Jan 23:30:34 23:34:54 68° 102° (ESE) 23:39:12 437.405
HUMSAT D 26 Jan 23:31:53 23:34:18 14° 273° (W) 23:36:33 437.325/437.525
50 SAT 26 Jan 23:32:27 23:35:06 16° 271° (W) 23:37:38 437.505
DUCHIFAT 1 26 Jan 23:34:51 23:39:11 74° 103° (ESE) 23:43:29 145.980
SWISSCUBE 27 Jan 00:04:34 00:08:43 31° 65° (ENE) 00:12:56 437.505
SPROUT 27 Jan 00:07:25 00:11:39 54° 260° (W) 00:15:57 437.525
NANOSAT C BR1 27 Jan 00:08:57 00:13:10 51° 289° (WNW) 00:17:20 145.865
CUBEBUG 1 27 Jan 00:13:46 00:16:19 15° 273° (W) 00:18:44 437.445
ISS 27 Jan 00:14:58 00:18:12 58° 153° (SSE) 00:21:28 145.825
UNISAT 6 27 Jan 00:18:46 00:22:42 29° 295° (WNW) 00:26:29 437.425
BEESAT 27 Jan 00:20:36 00:25:00 39° 67° (ENE) 00:29:28 436.000
QB50P2 27 Jan 00:21:51 00:25:54 38° 292° (WNW) 00:29:52 145.880/145.840
ITUPSAT 1 27 Jan 00:22:45 00:27:11 40° 68° (ENE) 00:31:40 437.325
QB50P1 27 Jan 00:32:18 00:36:09 31° 293° (WNW) 00:39:56 145.935-145.965
GONETS M04 27 Jan 00:42:12 00:49:10 29° 81° (E) 00:56:20
POLYITAN 1 27 Jan 00:45:30 00:49:03 24° 296° (WNW) 00:52:31 437.675
TISAT 1 27 Jan 00:55:14 00:58:22 19° 270° (W) 01:01:25 437.305
ANTELSAT 27 Jan 00:55:31 00:58:11 15° 302° (WNW) 01:00:40 437.575/2403.000
BUGSAT 1 27 Jan 00:58:17 01:01:42 23° 296° (WNW) 01:05:02 437.445
M-CUBED/EXP-1 PRIME 27 Jan 00:58:51 01:00:31 13° 55° (NE) 01:02:15 437.505
TIGRISAT 27 Jan 01:05:16 01:07:26 13° 303° (WNW) 01:09:24 435.000
POPSAT HIP 1 27 Jan 01:07:35 01:10:22 17° 300° (WNW) 01:13:02 437.405
DUCHIFAT 1 27 Jan 01:11:58 01:14:34 15° 301° (WNW) 01:17:01 145.980
KKS-1 27 Jan 01:24:13 01:28:17 35° 67° (ENE) 01:32:24 437.445
STARS 27 Jan 01:24:16 01:27:53 25° 64° (ENE) 01:31:35 437.465
AUBIESAT-1 27 Jan 01:32:40 01:35:46 23° 61° (ENE) 01:38:44 437.475
O/OREOS (USA 219) 27 Jan 01:36:31 01:40:35 30° 52° (NE) 01:44:41 437.305
SWISSCUBE 27 Jan 01:42:06 01:46:33 37° 263° (W) 01:50:58 437.505
Oscar 19 27 Jan 01:42:23 01:47:21 46° 98° (E) 01:52:18 437.125/150
ISS 27 Jan 01:51:31 01:54:46 55° 352° (N) 01:58:03 145.825
ITAMSAT 1 27 Jan 01:53:09 01:57:11 23° 91° (E) 02:01:20 435.822/435.867
BEESAT 27 Jan 01:58:49 02:03:00 29° 266° (W) 02:07:08 436.000
ITUPSAT 1 27 Jan 02:01:06 02:05:14 28° 266° (W) 02:09:21 437.325
M-CUBED/EXP-1 PRIME 27 Jan 02:31:04 02:35:09 82° 250° (WSW) 02:38:54 437.505
Gurwin Techsat 1B 27 Jan 02:34:35 02:39:28 36° 95° (E) 02:44:22 435.225
GONETS M04 27 Jan 02:36:31 02:45:19 75° 283° (WNW) 02:54:05
MOZHAYETS 4 27 Jan 02:47:02 02:49:11 14° 58° (ENE) 02:51:32
STARS 27 Jan 02:59:56 03:04:12 43° 262° (W) 03:08:28 437.465
HORYU 2 27 Jan 03:00:37 03:03:50 20° 91° (E) 03:07:09 437.375
KKS-1 27 Jan 03:01:02 03:04:59 30° 265° (W) 03:08:57 437.445
AIST 2 27 Jan 03:01:23 03:03:19 13° 111° (ESE) 03:05:27 435.215
AUBIESAT-1 27 Jan 03:06:49 03:10:36 37° 255° (WSW) 03:14:06 437.475
O/OREOS (USA 219) 27 Jan 03:15:49 03:20:08 39° 251° (WSW) 03:24:24 437.305
BEESAT 2 27 Jan 03:16:37 03:20:26 37° 120° (ESE) 03:24:20 435.950
Oscar 19 27 Jan 03:22:06 03:26:33 29° 297° (WNW) 03:30:56 437.125/150
DANDE 27 Jan 03:26:34 03:32:21 22° 80° (E) 03:38:38 436.750
ISS 27 Jan 03:28:15 03:31:32 65° 13° (NNE) 03:34:51 145.825
ITAMSAT 1 27 Jan 03:31:58 03:37:07 58° 291° (WNW) 03:42:15 435.822/435.867
BEESAT 3 27 Jan 03:33:04 03:37:07 59° 124° (SE) 03:41:14 437.485
RS-15 27 Jan 03:35:07 03:39:16 14° 96° (E) 03:44:17 29.354- 29.394
JAS-2 27 Jan 03:39:26 03:40:55 11° 84° (E) 03:42:50 435.910
CUSAT 1 27 Jan 04:06:40 04:14:12 43° 90° (E) 04:22:00 437.405
PCSat 27 Jan 04:10:20 04:13:31 16° 106° (ESE) 04:16:55 145.827
Gurwin Techsat 1B 27 Jan 04:14:35 04:19:31 38° 294° (WNW) 04:24:22 435.225
MOZHAYETS 4 27 Jan 04:21:12 04:25:49 87° 75° (ENE) 04:30:26
AO-7 27 Jan 04:24:18 04:32:24 51° 100° (E) 04:40:27 29.400- 29.500
CUBESAT XI-V 27 Jan 04:32:31 04:34:35 13° 57° (ENE) 04:36:50 437.345
HORYU 2 27 Jan 04:36:31 04:40:53 52° 290° (WNW) 04:45:11 437.375
AIST 2 27 Jan 04:37:05 04:41:22 89° 308° (NW) 04:45:43 435.215
GONETS M04 27 Jan 04:37:45 04:44:03 20° 308° (NW) 04:50:01
YUBILEINY 27 Jan 04:44:04 04:48:36 15° 45° (NE) 04:53:33 435.215
BEESAT 2 27 Jan 04:54:51 04:58:42 35° 320° (NW) 05:02:35 435.950
ISS 27 Jan 05:04:52 05:07:59 38° 212° (SSW) 05:11:05 145.825
DANDE 27 Jan 05:06:30 05:14:45 80° 99° (E) 05:23:28 436.750
BEESAT 3 27 Jan 05:12:04 05:15:35 25° 325° (NW) 05:19:06 437.485
ITAMSAT 1 27 Jan 05:13:57 05:15:41 11° 309° (NW) 05:17:11 435.822/435.867
STRAND 1 27 Jan 05:15:46 05:19:57 27° 62° (ENE) 05:24:15 437.568
Cubesat XI-IV 27 Jan 05:18:18 05:20:00 12° 83° (E) 05:22:00 437.490
JAS-2 27 Jan 05:21:35 05:27:04 71° 103° (ESE) 05:33:10 435.910
PRISM 27 Jan 05:34:11 05:38:14 61° 73° (ENE) 05:42:19 437.425
CUTE-I 27 Jan 05:37:41 05:41:07 17° 87° (E) 05:44:44 437.470
RS-15 27 Jan 05:38:48 05:49:18 59° 118° (ESE) 06:00:02 29.354- 29.394
CUSAT 1 27 Jan 05:49:00 05:57:09 57° 290° (WNW) 06:05:22 437.405
PCSat 27 Jan 05:50:50 05:56:17 90° 42° (NE) 06:01:46 145.827
MOZHAYETS 4 27 Jan 06:01:48 06:03:48 12° 275° (W) 06:05:35
CUBESAT XI-V 27 Jan 06:06:47 06:11:23 84° 75° (ENE) 06:16:02 437.345
AIST 2 27 Jan 06:17:19 06:20:36 20° 330° (NNW) 06:23:52 435.215
AO-7 27 Jan 06:17:20 06:25:13 47° 302° (WNW) 06:32:59 29.400- 29.500
BEESAT 2 27 Jan 06:36:22 06:38:08 12° 343° (NNW) 06:39:51 435.950
